Home > Time Zones > World Clock > Weather > France > Lyon > Past weeks

Flag Weather past 2 weeks in Lyon, France

Now
54 °F

Clear.


Feels Like: 53 °F
Forecast: 47 / 61 °F
Wind: 3 mph from North

Location: Lyon / Bron

Current Time: Nov 24, 2014 at 6:40:31 AM

Latest Report: Nov 24, 2014 at 6:00 AM


Visibility: N/A

Pressure: 30.12 "Hg

Humidity: 82%

Dew point: 48 °F

Location of LyonLocation

Historic Weather in Lyon — Graph

°F

Lyon temperature yesterday

Maximum temperature yesterday: 70 °F (at 1:00 PM)
Minimum temperature yesterday: 52 °F (at 1:00 AM)
Average temperature yesterday: 62 °F

Past Weeks' High & Low Weather Summary

 TemperatureHumidityPressure
High70 °F (Nov 23, 1:00 PM)100% (Nov 9, 8:30 AM)30.21 "Hg (Nov 9, 8:30 AM)
Low41 °F (Nov 14, 3:00 AM)53% (Nov 23, 1:00 PM)29.56 "Hg (Nov 12, 1:30 AM)
Average51 °F83%29.86 "Hg
* Reported Nov 9 5:00 AM — Nov 24 5:30 AM, Lyon, Weather by CustomWeather, © 2014

Note: Actual official high and low records may vary slightly from our data, if they occured in-between our weather recording intervals... More about our weather records

Advertising

Lyon weather history for previous 24 hours

 ConditionsComfort  
Time TempWeatherWind HumidityBarometerVisibility
5:30 AM
Nov 24
55 °FClear.5 mph77%30.12 "HgN/A
5:00 AM55 °FClear.2 mph82%30.12 "HgN/A
4:30 AM55 °FClear.3 mph77%30.12 "HgN/A
4:00 AM57 °FClear.5 mph77%30.12 "HgN/A
3:30 AM59 °FClear.3 mph72%30.09 "HgN/A
3:00 AM61 °FClear.5 mph68%30.09 "HgN/A
2:30 AM59 °FClear.3 mph72%30.09 "HgN/A
2:00 AM61 °FClear.5 mph68%30.09 "HgN/A
1:30 AM61 °FClear.3 mph68%30.09 "HgN/A
12:30 AM63 °FClear.2 mph64%30.09 "HgN/A
12:00 AM63 °FClear.9 mph64%30.12 "HgN/A
11:30 PM
Nov 23
63 °FClear.12 mph64%30.09 "HgN/A
11:00 PM63 °FClear.2 mph64%30.09 "HgN/A
10:30 PM63 °FClear.3 mph64%30.09 "HgN/A
9:30 PM64 °FClear.9 mph60%30.09 "HgN/A
9:00 PM64 °FClear.7 mph60%30.09 "HgN/A
8:30 PM63 °FClear.5 mph68%30.09 "HgN/A
8:00 PM61 °FClear.5 mph68%30.07 "HgN/A
7:30 PM63 °FClear.5 mph64%30.07 "HgN/A
7:00 PM64 °FClear.8 mph60%30.07 "HgN/A
6:30 PM64 °FClear.8 mph64%30.07 "HgN/A
6:00 PM64 °FClear.7 mph60%30.07 "HgN/A
5:30 PM64 °FClear.10 mph64%30.07 "HgN/A
5:00 PM64 °FClear.6 mph64%30.07 "HgN/A
4:30 PM64 °FClear.8 mph64%30.07 "HgN/A
4:00 PM66 °FClear.8 mph56%30.07 "HgN/A
3:30 PM68 °FClear.10 mph53%30.07 "HgN/A
3:00 PM68 °FClear.9 mph53%30.07 "HgN/A
2:30 PM68 °FClear.6 mph56%30.07 "HgN/A
2:00 PM70 °FClear.8 mph53%30.09 "HgN/A
1:30 PM70 °FClear.16 mph53%30.09 "HgN/A
1:00 PM70 °FClear.14 mph53%30.09 "HgN/A
12:30 PM68 °FClear.12 mph56%30.09 "HgN/A
12:00 PM68 °FClear.12 mph56%30.09 "HgN/A
11:30 AM68 °FClear.15 mph56%30.12 "HgN/A
11:00 AM66 °FClear.14 mph60%30.12 "HgN/A
10:30 AM66 °FClear.12 mph60%30.12 "HgN/A
10:00 AM63 °FClear.10 mph68%30.09 "HgN/A
9:30 AM61 °FClear.10 mph68%30.09 "HgN/A
9:00 AM59 °FClear.10 mph72%30.09 "HgN/A
8:30 AM59 °FClear.9 mph68%30.09 "HgN/A
8:00 AM59 °FClear.12 mph68%30.09 "HgN/A
7:30 AM55 °FClear.7 mph82%30.09 "HgN/A
7:00 AM54 °FClear.8 mph82%30.09 "HgN/A
6:30 AM54 °FClear.8 mph82%30.09 "HgN/A
6:00 AM54 °FClear.8 mph82%30.09 "HgN/A
Weather by CustomWeather, © 2014

See weather overviewHow to use our weather pages